カタログに戻る

IRIDIUM 149

運用中通信PO
NORAD 43250·PAYLOAD·🇺🇸 United States

打ち上げ Mar 30, 2018 から Vandenberg Space Force Base

Loading…

次のパス (今後24時間)

TLE

最新Source: CelesTrak SupGP

元期: Sep 14, 2026, 21:12 UTC

1 43250C 18030B   26257.88368056  .00003231  00000+0  11552-2 0  2573
2 43250  86.3912 252.8446 0002452  90.5240 239.6813 14.34214884    11

AllMySatでIRIDIUM 149をリアルタイム追跡

Download on the App Store